CZ-4C R/B

Satellite information

Favourite Embed

Satellite Type and Status

ROCKET BODYIN ORBIT

Key statistics

Satellite CZ-4C R/B at a glance.

Uptime

1125

Days in orbit

Revolutions

≈ 13.7

Per day

Orbit

LEO

Low Earth Orbit

Inclination

63.4

Latest

Satellite identification and parameters

Extended collection of information and parameters for CZ-4C R/B.

Object identification

Identified? True

Debris? False

Object name: CZ-4C R/B

International designator: 2022-154B

Object number (NORAD): 54250

Object ID (CCSDS): 54250

Country: PEOPLES REPUBLIC OF CHINA (PRC)

Current information (Y/N): Y

RCS size: LARGE

Orbital parameters

Period: 105.187 minutes

Inclination: 63.4066 deg

SMA: 7381.347 km

Apoapsis: 1160.882 km

Periapsis: 845.542 km

RAAN: 258.6631 deg

Eccentricy: 0.02136056

Argument of periapsis: 25.8628 deg

Mean anomaly: 335.2903 deg

Mean motion: 13.68987041 rev/day

Mean motion (dot): -0.00000019 rev/day2

B* drag term: 0.000076247093 1/REarth

Two-line elements (TLE)

Creation date: Dec. 14, 2025, 3:07 a.m.

Reference frame: TEME

Reference center: EARTH

Epoch: Dec. 13, 2025, 10:44 a.m. UTC

TLE line 0: 0 CZ-4C R/B

TLE line 1: 1 54250U 22154B 25347.44723585 -.00000019 00000-0 76247-4 0 9990

TLE line 2: 2 54250 63.4066 258.6631 0213606 25.8628 335.2903 13.68987041153925

Live tracking on map

Real-time ground track for satellite CZ-4C R/B.

In-orbit conjunctions

A list of the most updated potential collisions computed for object CZ-4C R/B.

Target Orbit TCA Probability of collision Miss distance Type
FENGYUN 1C DEB SSO 2024-08-24 21:00:14 0.000129901 437.0 (m) DEBRIS

Associated space launch

Officially described as an optical remote-sensing satellite built by SAST.

CZ-4C R/B was lifted into orbit during the mission ‘Long March 4C | Yaogan 34-03’, on board a Long March 4C space rocket.

The launch took place on Nov. 15, 2022, 1:38 a.m. from Launch Area 94 (SLS-2 / 603).

For more information about the launch, click the button.

Launch to space Long March 4C | Yaogan 34-03
Long March 4C | Yaogan 34-03

Agency: N/A

Status: Launch Successful

Launch date: Nov. 15, 2022, 1:38 a.m. UTC

Rocket: Long March 4C

Launch pad: Launch Area 94 (SLS-2 / 603)

Location: Jiuquan Satellite Launch Center, People's Republic of China

...

Latest news about this satellite

There are no fresh news available about this satellite. Check back as we update our databases every day.


Newsletter sign-up

Weekly statistics, charts and insights to help you stay on top of the space industry.